Date,TemperatureHighF,TemperatureAvgF,TemperatureLowF,DewpointHighF,DewpointAvgF,DewpointLowF,HumidityHigh,HumidityAvg,HumidityLow,PressureMaxIn,PressureMinIn,WindSpeedMaxMPH,WindSpeedAvgMPH,GustSpeedMaxMPH,PrecipitationSumIn
2013-1-1,18,5,-8,-100,-100,-100,0,0,100,0.00,40.00,0,-999,0,0.00
2013-1-2,19,14,5,-100,-100,-100,0,0,100,0.00,40.00,0,-999,0,0.00
2013-1-3,23,4,-7,-100,-100,-100,0,0,100,0.00,40.00,0,-999,0,0.00
2013-1-4,16,0,-10,-100,-100,-100,0,0,100,0.00,40.00,0,-999,0,0.00
2013-1-5,19,2,-12,-100,-100,-100,0,0,100,0.00,40.00,0,-999,0,0.00
2013-1-6,43,20,-6,-100,-100,-100,0,0,100,0.00,40.00,0,-999,0,0.00
2013-1-7,40,28,8,-100,-100,-100,0,0,100,0.00,40.00,0,-999,0,0.00
2013-1-8,38,32,28,-100,-100,-100,0,0,100,0.00,40.00,0,-999,0,0.00
2013-1-9,48,31,18,-100,-100,-100,0,0,100,0.00,40.00,0,-999,0,0.00
2013-1-10,48,32,15,-100,-100,-100,0,0,100,0.00,40.00,0,-999,0,0.00
2013-1-11,33,20,3,-100,-100,-100,0,0,100,0.00,40.00,0,-999,0,0.00
2013-1-12,3,-2,-9,-100,-100,-100,0,0,100,0.00,40.00,0,-999,0,0.00
2013-1-13,2,-3,-12,-100,-100,-100,0,0,100,0.00,40.00,0,-999,0,0.00
2013-1-14,2,-10,-21,-100,-100,-100,0,0,100,0.00,40.00,0,-999,0,0.00
2013-1-15,21,10,-13,-100,-100,-100,0,0,100,0.00,40.00,0,-999,0,0.00
2013-1-16,28,18,9,-100,-100,-100,0,0,100,0.00,40.00,0,-999,0,0.00
2013-1-17,28,13,-2,-100,-100,-100,0,0,100,0.00,40.00,0,-999,0,0.00
2013-1-18,43,32,17,-100,-100,-100,0,0,100,0.00,40.00,0,-999,0,0.00
2013-1-19,44,32,16,-100,-100,-100,0,0,100,0.00,40.00,0,-999,0,0.00
2013-1-20,37,29,17,-100,-100,-100,0,0,100,0.00,40.00,0,-999,0,0.00
2013-1-21,43,29,10,-100,-100,-100,0,0,100,0.00,40.00,0,-999,0,0.00
2013-1-22,49,36,25,-100,-100,-100,0,0,100,0.00,40.00,0,-999,0,0.00
2013-1-23,53,42,23,-100,-100,-100,0,0,100,0.00,40.00,0,-999,0,0.00
2013-1-24,51,42,36,-100,-100,-100,0,0,100,0.00,40.00,0,-999,0,0.00
2013-1-25,50,40,32,-100,-100,-100,0,0,100,0.00,40.00,0,-999,0,0.00
2013-1-26,47,41,32,-100,-100,-100,0,0,100,0.00,40.00,0,-999,0,0.00
2013-1-27,48,37,30,-100,-100,-100,0,0,100,0.00,40.00,0,-999,0,0.00
2013-1-28,37,27,16,-100,-100,-100,0,0,100,0.00,40.00,0,-999,0,0.00
2013-1-29,22,15,8,-100,-100,-100,0,0,100,0.00,40.00,0,-999,0,0.00
2013-1-30,31,22,7,-100,-100,-100,0,0,100,0.00,40.00,0,-999,0,0.00
2013-1-31,37,32,27,-100,-100,-100,0,0,100,0.00,40.00,0,-999,0,0.00
2013-2-1,37,31,26,-100,-100,-100,0,0,100,0.00,40.00,0,-999,0,0.00
2013-2-2,46,33,23,-100,-100,-100,0,0,100,0.00,40.00,0,-999,0,0.00
2013-2-3,47,36,24,-100,-100,-100,0,0,100,0.00,40.00,0,-999,0,0.00
2013-2-4,44,34,23,-100,-100,-100,0,0,100,0.00,40.00,0,-999,0,0.00
2013-2-5,49,39,28,-100,-100,-100,0,0,100,0.00,40.00,0,-999,0,0.00
2013-2-6,43,36,22,-100,-100,-100,0,0,100,0.00,40.00,0,-999,0,0.00
2013-2-7,44,28,15,-100,-100,-100,0,0,100,0.00,40.00,0,-999,0,0.00
2013-2-8,48,31,12,-100,-100,-100,0,0,100,0.00,40.00,0,-999,0,0.00
2013-2-9,33,25,20,-100,-100,-100,0,0,100,0.00,40.00,0,-999,0,0.00
2013-2-10,21,18,1,-100,-100,-100,0,0,100,0.00,40.00,0,-999,0,0.00
2013-2-11,16,5,-7,-100,-100,-100,0,0,100,0.00,40.00,0,-999,0,0.00
2013-2-12,23,12,-5,-100,-100,-100,0,0,100,0.00,40.00,0,-999,0,0.00
2013-2-13,35,26,11,-100,-100,-100,0,0,100,0.00,40.00,0,-999,0,0.00
2013-2-14,29,22,15,-100,-100,-100,0,0,100,0.00,40.00,0,-999,0,0.00
2013-2-15,28,20,12,-100,-100,-100,0,0,100,0.00,40.00,0,-999,0,0.00
2013-2-16,46,35,25,-100,-100,-100,0,0,100,0.00,40.00,0,-999,0,0.00
2013-2-17,46,34,23,-100,-100,-100,0,0,100,0.00,40.00,0,-999,0,0.00
2013-2-18,27,21,14,-100,-100,-100,0,0,100,0.00,40.00,0,-999,0,0.00
2013-2-19,43,26,8,-100,-100,-100,0,0,100,0.00,40.00,0,-999,0,0.00
2013-2-20,45,26,14,-100,-100,-100,0,0,100,0.00,40.00,0,-999,0,0.00
2013-2-21,22,18,7,-100,-100,-100,0,0,100,0.00,40.00,0,-999,0,0.00
2013-2-22,28,16,1,-100,-100,-100,0,0,100,0.00,40.00,0,-999,0,0.00
2013-2-23,36,26,17,-100,-100,-100,0,0,100,0.00,40.00,0,-999,0,0.00
2013-2-24,24,19,3,-100,-100,-100,0,0,100,0.00,40.00,0,-999,0,0.00
2013-2-25,23,10,-10,-100,-100,-100,0,0,100,0.00,40.00,0,-999,0,0.00
2013-2-26,25,20,9,-100,-100,-100,0,0,100,0.00,40.00,0,-999,0,0.00
2013-2-27,23,13,2,-100,-100,-100,0,0,100,0.00,40.00,0,-999,0,0.00
2013-2-28,32,21,7,-100,-100,-100,0,0,100,0.00,40.00,0,-999,0,0.00
2013-3-1,40,30,17,-100,-100,-100,0,0,100,0.00,40.00,0,-999,0,0.00
2013-3-2,47,36,23,-100,-100,-100,0,0,100,0.00,40.00,0,-999,0,0.00
2013-3-3,49,42,38,-100,-100,-100,0,0,100,0.00,40.00,0,-999,0,0.00
2013-3-4,40,25,11,-100,-100,-100,0,0,100,0.00,40.00,0,-999,0,0.00
2013-3-5,46,28,7,-100,-100,-100,0,0,100,0.00,40.00,0,-999,0,0.00
2013-3-6,54,38,21,-100,-100,-100,0,0,100,0.00,40.00,0,-999,0,0.00
2013-3-7,54,42,32,-100,-100,-100,0,0,100,0.00,40.00,0,-999,0,0.00
2013-3-8,52,37,26,-100,-100,-100,0,0,100,0.00,40.00,0,-999,0,0.00
2013-3-9,31,27,21,-100,-100,-100,0,0,100,0.00,40.00,0,-999,0,0.00
2013-3-10,39,28,18,-100,-100,-100,0,0,100,0.00,40.00,0,-999,0,0.00
2013-3-11,43,32,24,-100,-100,-100,0,0,100,0.00,40.00,0,-999,0,0.00
2013-3-12,37,26,14,-100,-100,-100,0,0,100,0.00,40.00,0,-999,0,0.00
2013-3-13,49,41,34,-100,-100,-100,0,0,100,0.00,40.00,0,-999,0,0.00
2013-3-14,58,47,35,-100,-100,-100,0,0,100,0.00,40.00,0,-999,0,0.00
2013-3-15,60,51,44,-100,-100,-100,0,0,100,0.00,40.00,0,-999,0,0.00
2013-3-16,52,41,33,-100,-100,-100,0,0,100,0.00,40.00,0,-999,0,0.00
2013-3-17,45,34,24,-100,-100,-100,0,0,100,0.00,40.00,0,-999,0,0.00
2013-3-18,37,28,19,-100,-100,-100,0,0,100,0.00,40.00,0,-999,0,0.00
2013-3-19,41,30,18,-100,-100,-100,0,0,100,0.00,40.00,0,-999,0,0.00
2013-3-20,50,34,18,-100,-100,-100,0,0,100,0.00,40.00,0,-999,0,0.00
2013-3-21,40,36,24,-100,-100,-100,0,0,100,0.00,40.00,0,-999,0,0.00
2013-3-22,34,25,15,-100,-100,-100,0,0,100,0.00,40.00,0,-999,0,0.00
2013-3-23,20,16,9,-100,-100,-100,0,0,100,0.00,40.00,0,-999,0,0.00
2013-3-24,19,12,5,-100,-100,-100,0,0,100,0.00,40.00,0,-999,0,0.00
2013-3-25,32,19,5,-100,-100,-100,0,0,100,0.00,40.00,0,-999,0,0.00
2013-3-26,44,30,13,-100,-100,-100,0,0,100,0.00,40.00,0,-999,0,0.00
2013-3-27,51,38,25,-100,-100,-100,0,0,100,0.00,40.00,0,-999,0,0.00
2013-3-28,56,43,25,-100,-100,-100,0,0,100,0.00,40.00,0,-999,0,0.00
2013-3-29,57,43,31,-100,-100,-100,0,0,100,0.00,40.00,0,-999,0,0.00
2013-3-30,55,40,28,-100,-100,-100,0,0,100,0.00,40.00,0,-999,0,0.00
2013-3-31,59,42,23,-100,-100,-100,0,0,100,0.00,40.00,0,-999,0,0.00
2013-4-1,54,41,30,-100,-100,-100,0,0,100,0.00,40.00,0,-999,0,0.00
2013-4-2,44,36,28,-100,-100,-100,0,0,100,0.00,40.00,0,-999,0,0.00
2013-4-3,59,39,21,-100,-100,-100,0,0,100,0.00,40.00,0,-999,0,0.00
2013-4-4,61,48,31,-100,-100,-100,0,0,100,0.00,40.00,0,-999,0,0.00
2013-4-5,60,50,41,-100,-100,-100,0,0,100,0.00,40.00,0,-999,0,0.00
2013-4-6,51,43,34,-100,-100,-100,0,0,100,0.00,40.00,0,-999,0,0.00
2013-4-7,50,42,36,-100,-100,-100,0,0,100,0.00,40.00,0,-999,0,0.00
2013-4-8,48,30,17,-100,-100,-100,0,0,100,0.00,40.00,0,-999,0,0.00
2013-4-9,17,10,4,-100,-100,-100,0,0,100,0.00,40.00,0,-999,0,0.00
2013-4-10,27,12,-1,-100,-100,-100,0,0,100,0.00,40.00,0,-999,0,0.00
2013-4-11,41,35,25,-100,-100,-100,0,0,100,0.00,40.00,0,-999,0,0.00
2013-4-12,46,36,27,-100,-100,-100,0,0,100,0.00,40.00,0,-999,0,0.00
2013-4-13,50,40,29,-100,-100,-100,0,0,100,0.00,40.00,0,-999,0,0.00
2013-4-14,36,29,23,-100,-100,-100,0,0,100,0.00,40.00,0,-999,0,0.00
2013-4-15,28,24,21,-100,-100,-100,0,0,100,0.00,40.00,0,-999,0,0.00
2013-4-16,31,24,20,-100,-100,-100,0,0,100,0.00,40.00,0,-999,0,0.00
2013-4-17,24,20,14,-100,-100,-100,0,0,100,0.00,40.00,0,-999,0,0.00
2013-4-18,27,17,6,-100,-100,-100,0,0,100,0.00,40.00,0,-999,0,0.00
2013-4-19,43,33,20,-100,-100,-100,0,0,100,0.00,40.00,0,-999,0,0.00
2013-4-20,47,40,32,-100,-100,-100,0,0,100,0.00,40.00,0,-999,0,0.00
2013-4-21,50,42,34,-100,-100,-100,0,0,100,0.00,40.00,0,-999,0,0.00
2013-4-22,42,28,20,-100,-100,-100,0,0,100,0.00,40.00,0,-999,0,0.00
2013-4-23,32,22,13,-100,-100,-100,0,0,100,0.00,40.00,0,-999,0,0.00
2013-4-24,43,33,21,-100,-100,-100,0,0,100,0.00,40.00,0,-999,0,0.00
2013-4-25,56,42,26,-100,-100,-100,0,0,100,0.00,40.00,0,-999,0,0.00
2013-4-26,59,43,24,-100,-100,-100,0,0,100,0.00,40.00,0,-999,0,0.00
2013-4-27,65,49,30,-100,-100,-100,0,0,100,0.00,40.00,0,-999,0,0.00
2013-4-28,68,54,41,-100,-100,-100,0,0,100,0.00,40.00,0,-999,0,0.00
2013-4-29,67,55,39,-100,-100,-100,0,0,100,0.00,40.00,0,-999,0,0.00
2013-4-30,53,44,32,-100,-100,-100,0,0,100,0.00,40.00,0,-999,0,0.08
2013-5-1,32,26,22,-100,-100,-100,0,0,100,0.00,40.00,0,-999,0,0.10
2013-5-2,44,26,9,-100,-100,-100,0,0,100,0.00,40.00,0,-999,0,0.15
2013-5-3,56,41,26,-100,-100,-100,0,0,100,0.00,40.00,0,-999,0,0.05
2013-5-4,49,44,36,-100,-100,-100,0,0,100,0.00,40.00,0,-999,0,0.00
2013-5-5,54,44,35,-100,-100,-100,0,0,100,0.00,40.00,0,-999,0,0.00
2013-5-6,60,48,32,-100,-100,-100,0,0,100,0.00,40.00,0,-999,0,0.00
2013-5-7,58,49,40,-100,-100,-100,0,0,100,0.00,40.00,0,-999,0,0.04
2013-5-8,57,47,33,-100,-100,-100,0,0,100,0.00,40.00,0,-999,0,0.02
2013-5-9,57,46,35,-100,-100,-100,0,0,100,0.00,40.00,0,-999,0,0.18
2013-5-10,61,49,34,-100,-100,-100,0,0,100,0.00,40.00,0,-999,0,0.23
2013-5-11,65,50,35,-100,-100,-100,0,0,100,0.00,40.00,0,-999,0,0.01
2013-5-12,70,57,40,-100,-100,-100,0,0,100,0.00,40.00,0,-999,0,0.00
2013-5-13,79,64,48,-100,-100,-100,0,0,100,0.00,40.00,0,-999,0,0.00
2013-5-14,80,65,51,-100,-100,-100,0,0,100,0.00,40.00,0,-999,0,0.00
2013-5-15,69,58,46,-100,-100,-100,0,0,100,0.00,40.00,0,-999,0,0.20
2013-5-16,72,59,49,-100,-100,-100,0,0,100,0.00,40.00,0,-999,0,0.20
2013-5-17,76,62,47,-100,-100,-100,0,0,100,0.00,40.00,0,-999,0,0.01
2013-5-18,61,52,45,-100,-100,-100,0,0,100,0.00,40.00,0,-999,0,0.00
2013-5-19,55,47,38,-100,-100,-100,0,0,100,0.00,40.00,0,-999,0,0.00
2013-5-20,48,44,41,-100,-100,-100,0,0,100,0.00,40.00,0,-999,0,0.29
2013-5-21,56,49,37,-100,-100,-100,0,0,100,0.00,40.00,0,-999,0,0.01
2013-5-22,66,55,38,-100,-100,-100,0,0,100,0.00,40.00,0,-999,0,0.00
2013-5-23,60,52,45,-100,-100,-100,0,0,100,0.00,40.00,0,-999,0,0.00
2013-5-24,74,60,49,-100,-100,-100,0,0,100,0.00,40.00,0,-999,0,0.00
2013-5-25,76,63,44,-100,-100,-100,0,0,100,0.00,40.00,0,-999,0,0.00
2013-5-26,77,61,41,-100,-100,-100,0,0,100,0.00,40.00,0,-999,0,0.00
2013-5-27,71,58,43,-100,-100,-100,0,0,100,0.00,40.00,0,-999,0,0.00
2013-5-28,70,54,38,-100,-100,-100,0,0,100,0.00,40.00,0,-999,0,0.00
2013-5-29,56,48,44,-100,-100,-100,0,0,100,0.00,40.00,0,-999,0,0.11
2013-5-30,44,43,40,-100,-100,-100,0,0,100,0.00,40.00,0,-999,0,0.07
2013-5-31,59,54,45,-100,-100,-100,0,0,100,0.00,40.00,0,-999,0,0.00
2013-6-1,61,51,42,-100,-100,-100,0,0,100,0.00,40.00,0,-999,0,0.00
2013-6-2,78,62,44,-100,-100,-100,0,0,100,0.00,40.00,0,-999,0,0.00
2013-6-3,77,64,48,-100,-100,-100,0,0,100,0.00,40.00,0,-999,0,0.00
2013-6-4,71,53,38,-100,-100,-100,0,0,100,0.00,40.00,0,-999,0,0.04
2013-6-5,67,53,45,-100,-100,-100,0,0,100,0.00,40.00,0,-999,0,0.04
2013-6-6,73,58,40,-100,-100,-100,0,0,100,0.00,40.00,0,-999,0,0.00
2013-6-7,76,62,49,-100,-100,-100,0,0,100,0.00,40.00,0,-999,0,0.00
2013-6-8,71,62,53,-100,-100,-100,0,0,100,0.00,40.00,0,-999,0,0.00
2013-6-9,84,67,44,-100,-100,-100,0,0,100,0.00,40.00,0,-999,0,0.00
2013-6-10,87,73,56,-100,-100,-100,0,0,100,0.00,40.00,0,-999,0,0.00
2013-6-11,85,71,53,-100,-100,-100,0,0,100,0.00,40.00,0,-999,0,0.00
2013-6-12,83,69,51,-100,-100,-100,0,0,100,0.00,40.00,0,-999,0,0.00
2013-6-13,83,72,61,-100,-100,-100,0,0,100,0.00,40.00,0,-999,0,0.00
2013-6-14,82,69,52,-100,-100,-100,0,0,100,0.00,40.00,0,-999,0,0.00
2013-6-15,76,64,43,-100,-100,-100,0,0,100,0.00,40.00,0,-999,0,0.00
2013-6-16,77,63,49,-100,-100,-100,0,0,100,0.00,40.00,0,-999,0,0.00
2013-6-17,74,62,44,-100,-100,-100,0,0,100,0.00,40.00,0,-999,0,0.10
2013-6-18,76,65,53,-100,-100,-100,0,0,100,0.00,40.00,0,-999,0,0.10
2013-6-19,84,69,52,-100,-100,-100,0,0,100,0.00,40.00,0,-999,0,0.00
2013-6-20,78,58,44,-100,-100,-100,0,0,100,0.00,40.00,0,-999,0,0.00
2013-6-22,79,71,51,-100,-100,-100,0,0,100,0.00,40.00,0,-999,0,0.00
2013-6-23,81,63,42,-100,-100,-100,0,0,100,0.00,40.00,0,-999,0,0.00
2013-6-24,81,70,57,-100,-100,-100,0,0,100,0.00,40.00,0,-999,0,0.00
2013-6-25,76,67,50,-100,-100,-100,0,0,100,0.00,40.00,0,-999,0,0.00
2013-6-26,86,69,48,-100,-100,-100,0,0,100,0.00,40.00,0,-999,0,0.00
2013-6-27,89,73,52,-100,-100,-100,0,0,100,0.00,40.00,0,-999,0,0.00
2013-6-28,89,74,55,-100,-100,-100,0,0,100,0.00,40.00,0,-999,0,0.00
2013-6-29,83,70,54,-100,-100,-100,0,0,100,0.00,40.00,0,-999,0,0.00
2013-6-30,77,66,57,-100,-100,-100,0,0,100,0.00,40.00,0,-999,0,0.84
2013-7-1,74,62,50,-100,-100,-100,0,0,100,0.00,40.00,0,-999,0,0.19
2013-7-2,76,65,51,-100,-100,-100,0,0,100,0.00,40.00,0,-999,0,0.04
2013-7-3,84,68,50,-100,-100,-100,0,0,100,0.00,40.00,0,-999,0,0.00
2013-7-4,81,69,55,-100,-100,-100,0,0,100,0.00,40.00,0,-999,0,0.00
2013-7-5,81,67,59,-100,-100,-100,0,0,100,0.00,40.00,0,-999,0,0.03
2013-7-6,82,66,58,-100,-100,-100,0,0,100,0.00,40.00,0,-999,0,0.04
2013-7-7,85,71,53,-100,-100,-100,0,0,100,0.00,40.00,0,-999,0,0.00
2013-7-8,81,66,59,-100,-100,-100,0,0,100,0.00,40.00,0,-999,0,0.12
2013-7-9,85,70,57,-100,-100,-100,0,0,100,0.00,40.00,0,-999,0,0.12
2013-7-10,85,72,56,-100,-100,-100,0,0,100,0.00,40.00,0,-999,0,0.00
2013-7-11,89,76,56,-100,-100,-100,0,0,100,0.00,40.00,0,-999,0,0.00
2013-7-12,79,71,62,-100,-100,-100,0,0,100,0.00,40.00,0,-999,0,0.11
2013-7-13,79,66,56,-100,-100,-100,0,0,100,0.00,40.00,0,-999,0,0.95
2013-7-14,74,64,54,-100,-100,-100,0,0,100,0.00,40.00,0,-999,0,0.85
2013-7-15,77,67,56,-100,-100,-100,0,0,100,0.00,40.00,0,-999,0,0.00
2013-7-16,76,67,56,-100,-100,-100,0,0,100,0.00,40.00,0,-999,0,0.00
2013-7-17,84,71,56,-100,-100,-100,0,0,100,0.00,40.00,0,-999,0,0.00
2013-7-18,83,72,59,-100,-100,-100,0,0,100,0.00,40.00,0,-999,0,0.06
2013-7-19,76,66,55,-100,-100,-100,0,0,100,0.00,40.00,0,-999,0,0.06
2013-7-20,77,66,57,-100,-100,-100,0,0,100,0.00,40.00,0,-999,0,0.04
2013-7-21,87,70,50,-100,-100,-100,0,0,100,0.00,40.00,0,-999,0,0.02
2013-7-22,88,70,50,-100,-100,-100,0,0,100,0.00,40.00,0,-999,0,0.00
2013-7-23,87,69,52,-100,-100,-100,0,0,100,0.00,40.00,0,-999,0,0.00
2013-7-24,80,68,60,-100,-100,-100,0,0,100,0.00,40.00,0,-999,0,0.05
2013-7-25,73,64,58,-100,-100,-100,0,0,100,0.00,40.00,0,-999,0,0.07
2013-7-26,81,66,49,-100,-100,-100,0,0,100,0.00,40.00,0,-999,0,0.01
2013-7-27,80,64,51,-100,-100,-100,0,0,100,0.00,40.00,0,-999,0,0.06
2013-7-28,71,63,57,-100,-100,-100,0,0,100,0.00,40.00,0,-999,0,0.06
2013-7-29,72,63,58,-100,-100,-100,0,0,100,0.00,40.00,0,-999,0,0.05
2013-7-30,80,64,49,-100,-100,-100,0,0,100,0.00,40.00,0,-999,0,0.00
2013-7-31,80,66,48,-100,-100,-100,0,0,100,0.00,40.00,0,-999,0,0.00
2013-8-1,81,65,55,-100,-100,-100,0,0,100,0.00,40.00,0,-999,0,0.14
2013-8-2,84,71,56,-100,-100,-100,0,0,100,0.00,40.00,0,-999,0,0.13
2013-8-3,80,69,57,-100,-100,-100,0,0,100,0.00,40.00,0,-999,0,0.00
2013-8-4,82,68,54,-100,-100,-100,0,0,100,0.00,40.00,0,-999,0,0.00
2013-8-5,80,66,56,-100,-100,-100,0,0,100,0.00,40.00,0,-999,0,0.00
2013-8-6,80,66,53,-100,-100,-100,0,0,100,0.00,40.00,0,-999,0,0.00
2013-8-7,76,64,50,-100,-100,-100,0,0,100,0.00,40.00,0,-999,0,0.00
2013-8-8,71,58,48,-100,-100,-100,0,0,100,0.00,40.00,0,-999,0,0.00
2013-8-9,73,58,43,-100,-100,-100,0,0,100,0.00,40.00,0,-999,0,0.00
2013-8-10,79,64,45,-100,-100,-100,0,0,100,0.00,40.00,0,-999,0,0.00
2013-8-11,73,64,55,-100,-100,-100,0,0,100,0.00,40.00,0,-999,0,0.00
2013-8-12,75,60,47,-100,-100,-100,0,0,100,0.00,40.00,0,-999,0,0.13
2013-8-13,74,58,47,-100,-100,-100,0,0,100,0.00,40.00,0,-999,0,0.13
2013-8-14,78,60,46,-100,-100,-100,0,0,100,0.00,40.00,0,-999,0,0.01
2013-8-15,81,64,47,-100,-100,-100,0,0,100,0.00,40.00,0,-999,0,0.01
2013-8-16,85,67,47,-100,-100,-100,0,0,100,0.00,40.00,0,-999,0,0.00
2013-8-17,87,72,54,-100,-100,-100,0,0,100,0.00,40.00,0,-999,0,0.00
2013-8-18,85,70,57,-100,-100,-100,0,0,100,0.00,40.00,0,-999,0,0.00
2013-8-19,86,70,51,-100,-100,-100,0,0,100,0.00,40.00,0,-999,0,0.00
2013-8-20,87,71,55,-100,-100,-100,0,0,100,0.00,40.00,0,-999,0,0.00
2013-8-21,82,70,60,-100,-100,-100,0,0,100,0.00,40.00,0,-999,0,0.00
2013-8-22,78,64,54,-100,-100,-100,0,0,100,0.00,40.00,0,-999,0,0.00
2013-8-23,82,66,55,-100,-100,-100,0,0,100,0.00,40.00,0,-999,0,0.05
2013-8-24,79,64,52,-100,-100,-100,0,0,100,0.00,40.00,0,-999,0,0.04
2013-8-25,79,63,51,-100,-100,-100,0,0,100,0.00,40.00,0,-999,0,0.27
2013-8-26,79,66,55,-100,-100,-100,0,0,100,0.00,40.00,0,-999,0,0.04
2013-8-27,82,65,56,-100,-100,-100,0,0,100,0.00,40.00,0,-999,0,0.00
2013-8-28,83,74,65,-100,-100,-100,0,0,100,0.00,40.00,0,-999,0,0.01
2013-8-29,83,69,55,-100,-100,-100,0,0,100,0.00,40.00,0,-999,0,0.00
2013-8-30,83,68,52,-100,-100,-100,0,0,100,0.00,40.00,0,-999,0,0.02
2013-8-31,84,69,55,-100,-100,-100,0,0,100,0.00,40.00,0,-999,0,0.02
2013-9-1,78,66,56,-100,-100,-100,0,0,100,0.00,40.00,0,-999,0,0.00
2013-9-2,86,70,55,-100,-100,-100,0,0,100,0.00,40.00,0,-999,0,0.02
2013-9-3,87,72,55,-100,-100,-100,0,0,100,0.00,40.00,0,-999,0,0.02
2013-9-4,85,69,55,-100,-100,-100,0,0,100,0.00,40.00,0,-999,0,0.00
2013-9-5,86,68,57,-100,-100,-100,0,0,100,0.00,40.00,0,-999,0,0.28
2013-9-6,81,67,57,-100,-100,-100,0,0,100,0.00,40.00,0,-999,0,0.14
2013-9-7,82,66,54,-100,-100,-100,0,0,100,0.00,40.00,0,-999,0,0.00
2013-9-8,83,65,51,-100,-100,-100,0,0,100,0.00,40.00,0,-999,0,0.00
2013-9-9,63,59,56,-100,-100,-100,0,0,100,0.00,40.00,0,-999,0,0.21
2013-9-10,60,57,55,-100,-100,-100,0,0,100,0.00,40.00,0,-999,0,0.03
2013-9-11,60,57,54,-100,-100,-100,0,0,100,0.00,40.00,0,-999,0,0.30
2013-9-12,59,56,54,-100,-100,-100,0,0,100,0.00,40.00,0,-999,0,0.80
2013-9-13,67,59,54,-100,-100,-100,0,0,100,0.00,40.00,0,-999,0,0.09
2013-9-14,68,59,51,-100,-100,-100,0,0,100,0.00,40.00,0,-999,0,0.01
2013-9-15,57,55,52,-100,-100,-100,0,0,100,0.00,40.00,0,-999,0,0.01
2013-9-16,73,58,49,-100,-100,-100,0,0,100,0.00,40.00,0,-999,0,0.01
2013-9-17,77,62,51,-100,-100,-100,0,0,100,0.00,40.00,0,-999,0,0.01
2013-9-18,60,56,49,-100,-100,-100,0,0,100,0.00,40.00,0,-999,0,0.01
2013-9-19,61,50,41,-100,-100,-100,0,0,100,0.00,40.00,0,-999,0,0.00
2013-9-20,69,51,33,-100,-100,-100,0,0,100,0.00,40.00,0,-999,0,0.00
2013-9-21,76,60,42,-100,-100,-100,0,0,100,0.00,40.00,0,-999,0,0.00
2013-9-22,67,54,44,-100,-100,-100,0,0,100,0.00,40.00,0,-999,0,0.02
2013-9-23,59,51,46,-100,-100,-100,0,0,100,0.00,40.00,0,-999,0,0.04
2013-9-24,69,56,43,-100,-100,-100,0,0,100,0.00,40.00,0,-999,0,0.02
2013-9-25,74,61,42,-100,-100,-100,0,0,100,0.00,40.00,0,-999,0,0.00
2013-9-26,66,49,34,-100,-100,-100,0,0,100,0.00,40.00,0,-999,0,0.00
2013-9-27,56,46,38,-100,-100,-100,0,0,100,0.00,40.00,0,-999,0,0.00
2013-9-28,57,45,35,-100,-100,-100,0,0,100,0.00,40.00,0,-999,0,0.00
2013-9-29,66,54,40,-100,-100,-100,0,0,100,0.00,40.00,0,-999,0,0.00
2013-9-30,71,62,54,-100,-100,-100,0,0,100,0.00,40.00,0,-999,0,0.00
2013-10-1,66,60,55,-100,-100,-100,0,0,100,0.00,40.00,0,-999,0,0.00
2013-10-2,67,54,40,-100,-100,-100,0,0,100,0.00,40.00,0,-999,0,0.00
2013-10-3,58,46,34,-100,-100,-100,0,0,100,0.00,40.00,0,-999,0,0.00
2013-10-4,34,27,22,-100,-100,-100,0,0,100,0.00,40.00,0,-999,0,0.00
2013-10-5,45,33,22,-100,-100,-100,0,0,100,0.00,40.00,0,-999,0,0.02
2013-10-6,52,40,28,-100,-100,-100,0,0,100,0.00,40.00,0,-999,0,0.02
2013-10-7,70,53,36,-100,-100,-100,0,0,100,0.00,40.00,0,-999,0,0.00
2013-10-8,67,54,43,-100,-100,-100,0,0,100,0.00,40.00,0,-999,0,0.00
2013-10-9,57,46,37,-100,-100,-100,0,0,100,0.00,40.00,0,-999,0,0.00
2013-10-10,56,45,38,-100,-100,-100,0,0,100,0.00,40.00,0,-999,0,0.01
2013-10-11,47,42,33,-100,-100,-100,0,0,100,0.00,40.00,0,-999,0,0.02
2013-10-12,51,40,30,-100,-100,-100,0,0,100,0.00,40.00,0,-999,0,0.00
2013-10-13,61,45,30,-100,-100,-100,0,0,100,0.00,40.00,0,-999,0,0.00
2013-10-14,43,36,28,-100,-100,-100,0,0,100,0.00,40.00,0,-999,0,0.02
2013-10-15,31,28,26,-100,-100,-100,0,0,100,0.00,40.00,0,-999,0,0.01
2013-10-16,45,33,22,-100,-100,-100,0,0,100,0.00,40.00,0,-999,0,0.00
2013-10-17,39,35,29,-100,-100,-100,0,0,100,0.00,40.00,0,-999,0,0.01
2013-10-18,34,28,25,-100,-100,-100,0,0,100,0.00,40.00,0,-999,0,0.01
2013-10-19,53,42,32,-100,-100,-100,0,0,100,0.00,40.00,0,-999,0,0.03
2013-10-20,47,38,28,-100,-100,-100,0,0,100,0.00,40.00,0,-999,0,0.05
2013-10-21,49,38,26,-100,-100,-100,0,0,100,0.00,40.00,0,-999,0,0.01
2013-10-22,58,44,30,-100,-100,-100,0,0,100,0.00,40.00,0,-999,0,0.00
2013-10-23,59,43,29,-100,-100,-100,0,0,100,0.00,40.00,0,-999,0,0.00
2013-10-24,57,42,27,-100,-100,-100,0,0,100,0.00,40.00,0,-999,0,0.00
2013-10-25,61,42,28,-100,-100,-100,0,0,100,0.00,40.00,0,-999,0,0.00
2013-10-26,59,40,26,-100,-100,-100,0,0,100,0.00,40.00,0,-999,0,0.00
2013-10-27,60,44,33,-100,-100,-100,0,0,100,0.00,40.00,0,-999,0,0.00
2013-10-28,42,36,27,-100,-100,-100,0,0,100,0.00,40.00,0,-999,0,0.00
2013-10-29,48,34,22,-100,-100,-100,0,0,100,0.00,40.00,0,-999,0,0.00
2013-10-30,40,34,27,-100,-100,-100,0,0,100,0.00,40.00,0,-999,0,0.15
2013-10-31,42,35,25,-100,-100,-100,0,0,100,0.00,40.00,0,-999,0,0.15
2013-11-1,43,36,32,-100,-100,-100,0,0,100,0.00,40.00,0,-999,0,0.00
2013-11-2,58,46,35,-100,-100,-100,0,0,100,0.00,40.00,0,-999,0,0.00
2013-11-3,54,42,23,-100,-100,-100,0,0,100,0.00,40.00,0,-999,0,0.00
2013-11-4,36,26,20,-100,-100,-100,0,0,100,0.00,40.00,0,-999,0,0.00
2013-11-5,25,20,13,-100,-100,-100,0,0,100,0.00,40.00,0,-999,0,0.03
2013-11-6,36,29,21,-100,-100,-100,0,0,100,0.00,40.00,0,-999,0,0.01
2013-11-7,49,40,30,-100,-100,-100,0,0,100,0.00,40.00,0,-999,0,0.01
2013-11-8,52,45,36,-100,-100,-100,0,0,100,0.00,40.00,0,-999,0,0.00
2013-11-9,56,46,39,-100,-100,-100,0,0,100,0.00,40.00,0,-999,0,0.00
2013-11-10,59,43,29,-100,-100,-100,0,0,100,0.00,40.00,0,-999,0,0.00
2013-11-11,58,41,29,-100,-100,-100,0,0,100,0.00,40.00,0,-999,0,0.00
2013-11-12,58,39,24,-100,-100,-100,0,0,100,0.00,40.00,0,-999,0,0.00
2013-11-13,57,43,30,-100,-100,-100,0,0,100,0.00,40.00,0,-999,0,0.00
2013-11-14,51,41,32,-100,-100,-100,0,0,100,0.00,40.00,0,-999,0,0.00
2013-11-15,51,40,31,-100,-100,-100,0,0,100,0.00,40.00,0,-999,0,0.00
2013-11-16,42,34,29,-100,-100,-100,0,0,100,0.00,40.00,0,-999,0,0.00
2013-11-17,40,32,25,-100,-100,-100,0,0,100,0.00,40.00,0,-999,0,0.00
2013-11-18,53,41,29,-100,-100,-100,0,0,100,0.00,40.00,0,-999,0,0.00
2013-11-19,51,39,23,-100,-100,-100,0,0,100,0.00,40.00,0,-999,0,0.00
2013-11-20,48,40,32,-100,-100,-100,0,0,100,0.00,40.00,0,-999,0,0.00
2013-11-21,35,16,10,-100,-100,-100,0,0,100,0.00,40.00,0,-999,0,0.00
2013-11-22,20,11,3,-100,-100,-100,0,0,100,0.00,40.00,0,-999,0,0.03
2013-11-23,33,21,7,-100,-100,-100,0,0,100,0.00,40.00,0,-999,0,0.01
2013-11-24,37,26,16,-100,-100,-100,0,0,100,0.00,40.00,0,-999,0,0.01
2013-11-25,38,28,16,-100,-100,-100,0,0,100,0.00,40.00,0,-999,0,0.00
2013-11-26,42,29,20,-100,-100,-100,0,0,100,0.00,40.00,0,-999,0,0.00
2013-11-27,53,36,24,-100,-100,-100,0,0,100,0.00,40.00,0,-999,0,0.00
2013-11-28,55,32,18,-100,-100,-100,0,0,100,0.00,40.00,0,-999,0,0.00
2013-11-29,51,37,23,-100,-100,-100,0,0,100,0.00,40.00,0,-999,0,0.00
2013-11-30,48,38,31,-100,-100,-100,0,0,100,0.00,40.00,0,-999,0,0.00
2013-12-1,43,38,32,-100,-100,-100,0,0,100,0.00,40.00,0,-999,0,0.00
2013-12-2,44,41,38,-100,-100,-100,0,0,100,0.00,40.00,0,-999,0,0.00
2013-12-3,38,25,6,-100,-100,-100,0,0,100,0.00,40.00,0,-999,0,0.00
2013-12-4,6,-4,-22,-100,-100,-100,0,0,100,0.00,40.00,0,-999,0,0.00
2013-12-5,-4,-14,-25,-100,-100,-100,0,0,100,0.00,40.00,0,-999,0,0.00
2013-12-6,-1,-12,-22,-100,-100,-100,0,0,100,0.00,40.00,0,-999,0,0.00
2013-12-7,20,7,-12,-100,-100,-100,0,0,100,0.00,40.00,0,-999,0,0.02
2013-12-8,12,2,-8,-100,-100,-100,0,0,100,0.00,40.00,0,-999,0,0.01
2013-12-9,13,6,-6,-100,-100,-100,0,0,100,0.00,40.00,0,-999,0,0.01
2013-12-10,24,19,12,-100,-100,-100,0,0,100,0.00,40.00,0,-999,0,0.00
2013-12-11,33,24,11,-100,-100,-100,0,0,100,0.00,40.00,0,-999,0,0.00
2013-12-12,44,35,25,-100,-100,-100,0,0,100,0.00,40.00,0,-999,0,0.00
2013-12-13,34,28,23,-100,-100,-100,0,0,100,0.00,40.00,0,-999,0,0.00
2013-12-14,35,28,21,-100,-100,-100,0,0,100,0.00,40.00,0,-999,0,0.00
2013-12-15,44,35,27,-100,-100,-100,0,0,100,0.00,40.00,0,-999,0,0.00
2013-12-16,47,39,33,-100,-100,-100,0,0,100,0.00,40.00,0,-999,0,0.00
2013-12-17,48,40,30,-100,-100,-100,0,0,100,0.00,40.00,0,-999,0,0.00
2013-12-18,54,45,38,-100,-100,-100,0,0,100,0.00,40.00,0,-999,0,0.00
2013-12-19,51,36,13,-100,-100,-100,0,0,100,0.00,40.00,0,-999,0,0.00
2013-12-20,30,19,12,-100,-100,-100,0,0,100,0.00,40.00,0,-999,0,0.00
2013-12-21,27,23,19,-100,-100,-100,0,0,100,0.00,40.00,0,-999,0,0.00
2013-12-22,30,22,11,-100,-100,-100,0,0,100,0.00,40.00,0,-999,0,0.00
2013-12-23,36,26,12,-100,-100,-100,0,0,100,0.00,40.00,0,-999,0,0.01
2013-12-24,38,28,11,-100,-100,-100,0,0,100,0.00,40.00,0,-999,0,0.01
2013-12-25,34,24,13,-100,-100,-100,0,0,100,0.00,40.00,0,-999,0,0.00
2013-12-26,43,30,19,-100,-100,-100,0,0,100,0.00,40.00,0,-999,0,0.00
2013-12-27,48,34,26,-100,-100,-100,0,0,100,0.00,40.00,0,-999,0,0.00
2013-12-28,40,32,17,-100,-100,-100,0,0,100,0.00,40.00,0,-999,0,0.00
2013-12-29,29,16,-6,-100,-100,-100,0,0,100,0.00,40.00,0,-999,0,0.01
2013-12-30,35,29,25,-100,-100,-100,0,0,100,0.00,40.00,0,-999,0,0.01
2013-12-31,41,36,30,-100,-100,-100,0,0,100,0.00,40.00,0,-999,0,0.00
2014-1-1,36,25,7,-100,-100,-100,0,0,100,0.00,40.00,0,-999,0,0.00
2014-1-2,40,29,5,-100,-100,-100,0,0,100,0.00,40.00,0,-999,0,0.00